Time,TemperatureF,DewpointF,PressureIn,WindDirection,WindDirectionDegrees,WindSpeedMPH,WindSpeedGustMPH,Humidity,HourlyPrecipIn,Conditions,Clouds,dailyrainin,SoftwareType,DateUTC
2013-04-09 00:09:00,54.9,44.0,30.02,SSE,159,0.0,1.0,66,0.00,,,0.00,weatherlink.com 1.10,2013-04-09 04:09:00,
2013-04-09 00:24:00,54.3,43.0,30.01,SSE,159,0.0,2.0,67,0.00,,,0.00,weatherlink.com 1.10,2013-04-09 04:24:00,
2013-04-09 00:39:00,53.9,43.0,30.01,SSE,159,0.0,0.0,68,0.00,,,0.00,weatherlink.com 1.10,2013-04-09 04:39:00,
2013-04-09 01:09:00,53.5,45.0,30.01,SSW,209,0.0,0.0,74,0.00,,,0.00,weatherlink.com 1.10,2013-04-09 05:09:00,
2013-04-09 01:24:00,53.2,47.0,30.00,SSW,209,0.0,1.0,78,0.00,,,0.00,weatherlink.com 1.10,2013-04-09 05:24:00,
2013-04-09 01:39:00,52.8,46.0,29.99,SSW,209,0.0,1.0,79,0.00,,,0.00,weatherlink.com 1.10,2013-04-09 05:39:00,
2013-04-09 01:54:00,52.5,48.0,29.98,SSE,159,1.0,3.0,84,0.00,,,0.00,weatherlink.com 1.10,2013-04-09 05:54:00,
2013-04-09 02:24:00,51.9,48.0,29.96,SSE,159,0.0,0.0,86,0.00,,,0.00,weatherlink.com 1.10,2013-04-09 06:24:00,
2013-04-09 02:39:00,51.6,48.0,29.96,SSE,159,0.0,1.0,86,0.00,,,0.00,weatherlink.com 1.10,2013-04-09 06:39:00,
2013-04-09 02:54:00,51.6,47.0,29.94,SSE,159,0.0,1.0,85,0.00,,,0.00,weatherlink.com 1.10,2013-04-09 06:54:00,
2013-04-09 03:09:00,51.6,47.0,29.93,SSE,159,0.0,1.0,84,0.00,,,0.00,weatherlink.com 1.10,2013-04-09 07:09:00,
2013-04-09 03:24:00,51.3,47.0,29.93,SSE,159,0.0,1.0,85,0.00,,,0.00,weatherlink.com 1.10,2013-04-09 07:24:00,
2013-04-09 03:39:00,51.1,47.0,29.94,South,169,4.0,4.0,86,0.00,,,0.00,weatherlink.com 1.10,2013-04-09 07:39:00,
2013-04-09 03:54:00,51.1,47.0,29.93,South,169,0.0,2.0,86,0.00,,,0.00,weatherlink.com 1.10,2013-04-09 07:54:00,
2013-04-09 04:09:00,50.7,47.0,29.93,South,169,0.0,1.0,86,0.00,,,0.00,weatherlink.com 1.10,2013-04-09 08:09:00,
2013-04-09 04:24:00,50.0,46.0,29.93,South,169,1.0,1.0,86,0.00,,,0.00,weatherlink.com 1.10,2013-04-09 08:24:00,
2013-04-09 04:39:00,49.3,46.0,29.93,South,169,0.0,0.0,88,0.00,,,0.00,weatherlink.com 1.10,2013-04-09 08:39:00,
2013-04-09 04:54:00,49.0,46.0,29.93,South,169,0.0,1.0,89,0.00,,,0.00,weatherlink.com 1.10,2013-04-09 08:54:00,
2013-04-09 05:09:00,49.0,46.0,29.93,South,169,0.0,0.0,89,0.00,,,0.00,weatherlink.com 1.10,2013-04-09 09:09:00,
2013-04-09 05:24:00,49.2,46.0,29.93,South,169,0.0,0.0,89,0.00,,,0.00,weatherlink.com 1.10,2013-04-09 09:24:00,
2013-04-09 05:39:00,48.8,46.0,29.93,South,169,0.0,1.0,90,0.00,,,0.00,weatherlink.com 1.10,2013-04-09 09:39:00,
2013-04-09 05:54:00,48.6,46.0,29.93,South,169,1.0,2.0,90,0.00,,,0.00,weatherlink.com 1.10,2013-04-09 09:54:00,
2013-04-09 06:09:00,48.4,46.0,29.93,South,169,0.0,1.0,91,0.00,,,0.00,weatherlink.com 1.10,2013-04-09 10:09:00,
2013-04-09 06:24:00,48.5,46.0,29.93,SSE,168,0.0,1.0,92,0.00,,,0.00,weatherlink.com 1.10,2013-04-09 10:24:00,
2013-04-09 06:39:00,48.3,46.0,29.93,SSE,168,0.0,0.0,92,0.00,,,0.00,weatherlink.com 1.10,2013-04-09 10:39:00,
2013-04-09 06:54:00,48.0,46.0,29.93,SSW,208,0.0,3.0,92,0.00,,,0.00,weatherlink.com 1.10,2013-04-09 10:54:00,
2013-04-09 07:09:00,48.3,46.0,29.93,ENE,62,0.0,3.0,93,0.00,,,0.00,weatherlink.com 1.10,2013-04-09 11:09:00,
2013-04-09 07:24:00,50.1,48.0,29.92,WSW,250,0.0,3.0,91,0.00,,,0.00,weatherlink.com 1.10,2013-04-09 11:24:00,
2013-04-09 07:39:00,50.5,48.0,29.92,SSW,210,0.0,4.0,91,0.00,,,0.00,weatherlink.com 1.10,2013-04-09 11:39:00,
2013-04-09 07:54:00,52.2,49.0,29.92,South,188,0.0,5.0,89,0.00,,,0.00,weatherlink.com 1.10,2013-04-09 11:54:00,
2013-04-09 08:09:00,56.3,50.0,29.92,NW,319,4.0,9.0,80,0.00,,,0.00,weatherlink.com 1.10,2013-04-09 12:09:00,
2013-04-09 08:25:00,58.6,51.0,29.92,SSE,167,4.0,8.0,75,0.00,,,0.00,weatherlink.com 1.10,2013-04-09 12:25:00,
2013-04-09 08:40:00,60.7,51.0,29.91,ESE,114,2.0,9.0,70,0.00,,,0.00,weatherlink.com 1.10,2013-04-09 12:40:00,
2013-04-09 08:55:00,62.2,51.0,29.91,South,188,2.0,9.0,67,0.00,,,0.00,weatherlink.com 1.10,2013-04-09 12:55:00,
2013-04-09 09:10:00,63.4,52.0,29.91,NNW,344,1.0,10.0,66,0.00,,,0.00,weatherlink.com 1.10,2013-04-09 13:10:00,
2013-04-09 09:25:00,64.8,52.0,29.91,SW,220,2.0,7.0,63,0.00,,,0.00,weatherlink.com 1.10,2013-04-09 13:25:00,
2013-04-09 09:40:00,66.4,52.0,29.91,NNW,348,2.0,8.0,61,0.00,,,0.00,weatherlink.com 1.10,2013-04-09 13:40:00,
2013-04-09 09:55:00,68.9,51.0,29.91,WSW,251,7.0,20.0,53,0.00,,,0.00,weatherlink.com 1.10,2013-04-09 13:55:00,
2013-04-09 10:10:00,70.2,51.0,29.92,North,9,7.0,17.0,51,0.00,,,0.00,weatherlink.com 1.10,2013-04-09 14:10:00,
2013-04-09 10:25:00,70.8,51.0,29.92,WNW,290,11.0,15.0,49,0.00,,,0.00,weatherlink.com 1.10,2013-04-09 14:25:00,
2013-04-09 10:40:00,71.3,52.0,29.92,WSW,250,3.0,14.0,50,0.00,,,0.00,weatherlink.com 1.10,2013-04-09 14:40:00,
2013-04-09 10:55:00,71.8,49.0,29.93,South,191,4.0,17.0,44,0.00,,,0.00,weatherlink.com 1.10,2013-04-09 14:55:00,
2013-04-09 11:10:00,72.2,48.0,29.93,WSW,249,9.0,19.0,43,0.00,,,0.00,weatherlink.com 1.10,2013-04-09 15:10:00,
2013-04-09 11:25:00,73.1,49.0,29.92,NW,321,10.0,18.0,43,0.00,,,0.00,weatherlink.com 1.10,2013-04-09 15:25:00,
2013-04-09 11:40:00,73.1,47.0,29.93,NNE,13,10.0,21.0,39,0.00,,,0.00,weatherlink.com 1.10,2013-04-09 15:40:00,
2013-04-09 11:55:00,73.1,47.0,29.94,NNW,329,2.0,23.0,39,0.00,,,0.00,weatherlink.com 1.10,2013-04-09 15:55:00,
2013-04-09 12:10:00,72.8,46.0,29.94,WNW,292,12.0,25.0,38,0.00,,,0.00,weatherlink.com 1.10,2013-04-09 16:10:00,
2013-04-09 12:25:00,73.3,46.0,29.94,WSW,250,12.0,19.0,38,0.00,,,0.00,weatherlink.com 1.10,2013-04-09 16:25:00,
2013-04-09 12:40:00,73.2,45.0,29.94,WNW,287,7.0,19.0,37,0.00,,,0.00,weatherlink.com 1.10,2013-04-09 16:40:00,
2013-04-09 12:55:00,73.7,46.0,29.93,North,360,5.0,14.0,37,0.00,,,0.00,weatherlink.com 1.10,2013-04-09 16:55:00,
2013-04-09 13:10:00,72.8,44.0,29.94,NNW,329,6.0,19.0,36,0.00,,,0.00,weatherlink.com 1.10,2013-04-09 17:10:00,
2013-04-09 13:25:00,73.3,45.0,29.94,NW,305,4.0,20.0,37,0.00,,,0.00,weatherlink.com 1.10,2013-04-09 17:25:00,
2013-04-09 13:40:00,73.6,45.0,29.94,West,259,19.0,20.0,36,0.00,,,0.00,weatherlink.com 1.10,2013-04-09 17:40:00,
2013-04-09 13:55:00,73.4,44.0,29.95,SSW,207,8.0,17.0,35,0.00,,,0.00,weatherlink.com 1.10,2013-04-09 17:55:00,
2013-04-09 14:10:00,74.3,47.0,29.95,SSE,150,8.0,17.0,38,0.00,,,0.00,weatherlink.com 1.10,2013-04-09 18:10:00,
2013-04-09 14:25:00,75.5,47.0,29.94,WSW,251,5.0,12.0,37,0.00,,,0.00,weatherlink.com 1.10,2013-04-09 18:25:00,
2013-04-09 14:41:00,74.9,45.0,29.94,NNW,344,8.0,16.0,34,0.00,,,0.00,weatherlink.com 1.10,2013-04-09 18:41:00,
2013-04-09 14:56:00,74.6,47.0,29.94,WNW,298,9.0,17.0,37,0.00,,,0.00,weatherlink.com 1.10,2013-04-09 18:56:00,
2013-04-09 15:11:00,75.3,46.0,29.94,NW,309,8.0,18.0,36,0.00,,,0.00,weatherlink.com 1.10,2013-04-09 19:11:00,
2013-04-09 15:26:00,75.0,43.0,29.94,WNW,303,5.0,12.0,32,0.00,,,0.00,weatherlink.com 1.10,2013-04-09 19:26:00,
2013-04-09 15:41:00,74.8,45.0,29.94,West,276,4.0,14.0,34,0.00,,,0.00,weatherlink.com 1.10,2013-04-09 19:41:00,
2013-04-09 15:56:00,73.9,42.0,29.94,WNW,301,2.0,16.0,32,0.00,,,0.00,weatherlink.com 1.10,2013-04-09 19:56:00,
2013-04-09 16:11:00,73.9,44.0,29.95,WNW,291,1.0,14.0,34,0.00,,,0.00,weatherlink.com 1.10,2013-04-09 20:11:00,
2013-04-09 16:26:00,74.4,44.0,29.94,NNW,332,8.0,13.0,34,0.00,,,0.00,weatherlink.com 1.10,2013-04-09 20:26:00,
2013-04-09 16:56:00,74.7,44.0,29.93,NNW,342,4.0,9.0,33,0.00,,,0.00,weatherlink.com 1.10,2013-04-09 20:56:00,
2013-04-09 17:26:00,75.0,44.0,29.95,SSW,205,5.0,8.0,33,0.00,,,0.00,weatherlink.com 1.10,2013-04-09 21:26:00,
2013-04-09 17:41:00,74.7,42.0,29.95,NW,305,3.0,10.0,31,0.00,,,0.00,weatherlink.com 1.10,2013-04-09 21:41:00,
2013-04-09 17:56:00,74.9,45.0,29.95,NNW,346,9.0,11.0,34,0.00,,,0.00,weatherlink.com 1.10,2013-04-09 21:56:00,
2013-04-09 18:26:00,73.9,42.0,29.95,NNW,337,6.0,8.0,32,0.00,,,0.00,weatherlink.com 1.10,2013-04-09 22:26:00,
2013-04-09 20:11:00,62.4,44.0,29.98,NW,310,0.0,0.0,52,0.00,,,0.00,weatherlink.com 1.10,2013-04-10 00:11:00,
2013-04-09 20:41:00,60.3,44.0,29.97,NW,310,0.0,2.0,56,0.00,,,0.00,weatherlink.com 1.10,2013-04-10 00:41:00,
2013-04-09 21:11:00,59.2,45.0,29.98,NW,310,0.0,2.0,60,0.00,,,0.00,weatherlink.com 1.10,2013-04-10 01:11:00,
2013-04-09 21:41:00,57.8,44.0,29.98,NW,310,0.0,1.0,60,0.00,,,0.00,weatherlink.com 1.10,2013-04-10 01:41:00,
2013-04-09 21:57:00,57.0,44.0,29.99,NW,310,0.0,0.0,63,0.00,,,0.00,weatherlink.com 1.10,2013-04-10 01:57:00,
2013-04-09 22:11:00,56.4,43.0,29.98,NW,310,0.0,1.0,62,0.00,,,0.00,weatherlink.com 1.10,2013-04-10 02:11:00,
2013-04-09 22:41:00,55.5,45.0,29.95,NW,310,0.0,1.0,67,0.00,,,0.00,weatherlink.com 1.10,2013-04-10 02:41:00,
2013-04-09 22:56:00,54.8,44.0,29.94,NW,310,0.0,0.0,68,0.00,,,0.00,weatherlink.com 1.10,2013-04-10 02:56:00,
2013-04-09 23:11:00,54.1,44.0,29.94,NW,310,0.0,0.0,68,0.00,,,0.00,weatherlink.com 1.10,2013-04-10 03:11:00,
2013-04-09 23:26:00,53.7,44.0,29.94,NW,310,0.0,0.0,69,0.00,,,0.00,weatherlink.com 1.10,2013-04-10 03:26:00,
2013-04-09 23:41:00,53.3,44.0,29.94,NW,310,0.0,0.0,70,0.00,,,0.00,weatherlink.com 1.10,2013-04-10 03:41:00,
2013-04-09 23:56:00,53.1,44.0,29.93,NW,310,0.0,0.0,70,0.00,,,0.00,weatherlink.com 1.10,2013-04-10 03:56:00,